STARLINK-33656, 63389

Orbit data source: Space-Track

STARLINK-33656, 63389 is a payload satellite owned by SpaceX/Seattle (US) in LEO that was launched on Wed, 26 Mar 2025 UTC via an FALCON 9 launch vehicle from the Air Force Western Test Range (AFWTR). Payload-class satellites include a variety of spacecraft equipped with specific instruments for various scientific and technological missions. These include communications satellites like Starlink; space stations such as the ISS; scientific satellites like the Hubble; Earth observation satellites from companies like Planet Labs, Umbra, and HawkEye 360; GPS; miniature CubeSats for education and research; and military/defense satellites.

Loading next visibility...
Identifier
63389, 2025-063AC
Orbit
LEO
Country
Flag of USUS
Related business
Manufacturer
SpaceX/Seattle
Mission
Operational Commercial Communications
Bus & Motor
STARLINK V2MO, Unknown motor
Mass
575 kg wet, ~530 kg dry
Launch date (UTC)
2025-03-26 (1 year ago)
Launch vehicle
FALCON 9
Launch site
Air Force Western Test Range (AFWTR)
Object type
Payload
Rocket body
Debris
Shape & HBR
Box + 2 Pan, 17.7 m
Radar Cross Section
36.964 m², Large (>1 m²)

Expand to show TLE details & history
Last TLE update: 12 hours ago

TLE from 12 hours ago
0 STARLINK-33656
1 63389U 25063AC  26171.34100361  .00013682  00000-0  45163-3 0  9992
2 63389  53.1611 295.1025 0001675  91.3919 268.7275 15.31715252 70481
Epoch: 2026-06-20T08:11Z
TLE epoch observation values (Epoch: 2026-06-20T08:11:02.711Z)
Latitude
0.00001°
Longitude
-96.21581°
Altitude
471.621 km
Speed
7.631 km/s
True Right ascension
19h 40m 24s
True Declination
0° 00' 00"
Sunlit
Object was in full shadow at epoch
Visualization orbit readout
Latitude
Unknown
Longitude
Unknown
Altitude
Unknown
Speed
Unknown
Apparent Right ascension
Unknown
Apparent Declination
Unknown
Sunlit
N/A
Visualization observer readout
Local Sidereal Time
07:16:30
Azimuth
Unknown
Elevation
Unknown
Doppler factor
Unknown
Orbital elements
Apogee altitude
472.098 km
Perigee altitude
469.804 km
Semi-major axis
6,849.088 km
Eccentricity
0.00017
Inclination
53.1611°
RAAN
295.1025°
Arg. of periapsis
91.3919°
True anomaly
268.70831°
Mean anomaly
268.7275°
Eccentric anomaly
268.71791°
Mean motion
3.82908 °/min
Orbital period
94.02 mins
BSTAR
0.00045163
Loading maneuver chart data...
Computing Atmospheric mass density...
Loading historical data...
Loading historical data...
Loading historical data...
Loading historical data...
Loading historical data...
Loading historical data...
Loading historical data...

Documentation

Showing up to 5 results
|